Find Starlink 31854

NORAD ID: 59671 Int'l Des: 2024-084 Owner: SPXS Country: US Constellation: starlink operational
LEOCIRCULAR

实时位置

正在加载3D地球...

关于 Starlink 31854

正在加载描述...

即将过境

Passes for default location (London). Set your location on the main map for personalized predictions.

高度历史

Loading altitude history...

两行轨道根数

1 59671U 24084T 26128.99988530 .00002762 00000-0 10981-3 0 9995
2 59671 43.0012 28.1692 0001279 272.2008 87.8698 15.27590102113955
Epoch: May 8, 2026 • Age: 27 hours

当前状态

高度 483.0 km
速度 7.63 km/s
星下点 23.13°N, 138.62°E
发射日期 May 6, 2024
运行时间 2 years
类型 internet

技术详情

分类 Payload
质量 730.00 kg
干质量 700.00 kg
总质量 730.00 kg
长度 0.30 m
直径 4.10 m
跨度 29.00 m
形状 Box + pan
制造商 SPXS
平台类型 Starlink V2M
阶段状态 In Orbit
所有者/国家 SPXS/US

Most Searched